Time,TemperatureF,DewpointF,PressureIn,WindDirection,WindDirectionDegrees,WindSpeedMPH,WindSpeedGustMPH,Humidity,HourlyPrecipIn,Conditions,Clouds,dailyrainin,SoftwareType,DateUTC
2013-09-11 00:02:00,78.3,72.3,30.03,NE,52,2.0,6.0,82,0.00,,,0.00,meteohub,2013-09-11 04:02:00,
2013-09-11 00:07:00,78.3,72.3,30.03,NE,45,5.0,5.0,82,0.00,,,0.00,meteohub,2013-09-11 04:07:00,
2013-09-11 00:12:00,78.1,72.5,30.03,ENE,74,2.0,8.0,83,0.00,,,0.00,meteohub,2013-09-11 04:12:00,
2013-09-11 00:17:00,78.1,72.5,30.04,NNE,28,6.0,8.0,83,0.00,,,0.00,meteohub,2013-09-11 04:17:00,
2013-09-11 00:22:00,78.1,72.5,30.03,NE,49,5.0,8.0,83,0.00,,,0.00,meteohub,2013-09-11 04:22:00,
2013-09-11 00:27:00,77.9,72.7,30.04,NE,47,4.0,7.0,84,0.00,,,0.00,meteohub,2013-09-11 04:27:00,
2013-09-11 00:32:00,77.7,72.5,30.03,NE,55,3.0,7.0,84,0.00,,,0.00,meteohub,2013-09-11 04:32:00,
2013-09-11 00:37:00,77.7,72.5,30.03,ENE,74,0.0,6.0,84,0.00,,,0.00,meteohub,2013-09-11 04:37:00,
2013-09-11 00:42:00,77.5,72.3,30.03,ENE,59,1.0,5.0,84,0.00,,,0.00,meteohub,2013-09-11 04:42:00,
2013-09-11 00:47:00,77.5,72.7,30.03,NE,44,3.0,5.0,85,0.00,,,0.00,meteohub,2013-09-11 04:47:00,
2013-09-11 00:52:00,77.4,72.5,30.03,East,80,0.0,4.0,85,0.00,,,0.00,meteohub,2013-09-11 04:52:00,
2013-09-11 00:57:00,77.4,72.5,30.03,NE,39,3.0,5.0,85,0.00,,,0.00,meteohub,2013-09-11 04:57:00,
2013-09-11 01:07:00,77.2,72.7,30.03,ENE,65,0.0,5.0,86,0.00,,,0.00,meteohub,2013-09-11 05:07:00,
2013-09-11 01:12:00,77.2,72.7,30.03,ENE,67,1.0,5.0,86,0.00,,,0.00,meteohub,2013-09-11 05:12:00,
2013-09-11 01:17:00,77.0,72.5,30.03,East,94,1.0,5.0,86,0.00,,,0.00,meteohub,2013-09-11 05:17:00,
2013-09-11 01:27:00,76.8,72.3,30.03,NE,49,1.0,5.0,86,0.00,,,0.00,meteohub,2013-09-11 05:27:00,
2013-09-11 01:32:00,76.8,72.7,30.02,NE,55,1.0,5.0,87,0.00,,,0.00,meteohub,2013-09-11 05:32:00,
2013-09-11 01:37:00,76.8,72.7,30.02,NE,35,0.0,5.0,87,0.00,,,0.00,meteohub,2013-09-11 05:37:00,
2013-09-11 01:42:00,76.8,72.7,30.02,NE,46,1.0,5.0,87,0.00,,,0.00,meteohub,2013-09-11 05:42:00,
2013-09-11 01:47:00,76.6,72.9,30.02,NE,46,1.0,5.0,88,0.00,,,0.00,meteohub,2013-09-11 05:47:00,
2013-09-11 01:52:00,76.6,72.9,30.02,NE,46,1.0,4.0,88,0.00,,,0.00,meteohub,2013-09-11 05:52:00,
2013-09-11 01:57:00,76.5,72.7,30.02,NE,46,1.0,3.0,88,0.00,,,0.00,meteohub,2013-09-11 05:57:00,
2013-09-11 02:02:00,76.3,72.5,30.02,NE,47,0.0,3.0,88,0.00,,,0.00,meteohub,2013-09-11 06:02:00,
2013-09-11 02:07:00,76.3,72.5,30.01,NE,47,0.0,3.0,88,0.00,,,0.00,meteohub,2013-09-11 06:07:00,
2013-09-11 02:12:00,76.1,72.7,30.01,NE,47,0.0,2.0,89,0.00,,,0.00,meteohub,2013-09-11 06:12:00,
2013-09-11 02:17:00,76.1,72.7,30.01,NE,47,0.0,3.0,89,0.00,,,0.00,meteohub,2013-09-11 06:17:00,
2013-09-11 02:22:00,75.9,72.5,30.01,NE,47,0.0,3.0,89,0.00,,,0.00,meteohub,2013-09-11 06:22:00,
2013-09-11 02:27:00,75.7,72.3,30.01,NE,47,0.0,3.0,89,0.00,,,0.00,meteohub,2013-09-11 06:27:00,
2013-09-11 02:32:00,75.6,72.1,30.01,NE,47,0.0,3.0,89,0.00,,,0.00,meteohub,2013-09-11 06:32:00,
2013-09-11 02:37:00,75.4,72.0,30.01,NE,47,0.0,2.0,89,0.00,,,0.00,meteohub,2013-09-11 06:37:00,
2013-09-11 02:42:00,75.2,72.1,30.01,NE,46,1.0,2.0,90,0.00,,,0.00,meteohub,2013-09-11 06:42:00,
2013-09-11 02:47:00,75.0,72.0,30.01,NE,42,2.0,2.0,90,0.00,,,0.00,meteohub,2013-09-11 06:47:00,
2013-09-11 02:52:00,75.0,72.1,30.00,NNE,28,0.0,4.0,91,0.00,,,0.00,meteohub,2013-09-11 06:52:00,
2013-09-11 02:57:00,74.8,72.0,30.00,North,5,3.0,4.0,91,0.00,,,0.00,meteohub,2013-09-11 06:57:00,
2013-09-11 03:02:00,74.8,72.0,30.00,North,9,2.0,5.0,91,0.00,,,0.00,meteohub,2013-09-11 07:02:00,
2013-09-11 03:07:00,74.8,72.0,30.00,North,5,3.0,5.0,91,0.00,,,0.00,meteohub,2013-09-11 07:07:00,
2013-09-11 03:12:00,74.8,72.0,30.00,North,5,2.0,5.0,91,0.00,,,0.00,meteohub,2013-09-11 07:12:00,
2013-09-11 03:17:00,74.7,71.8,30.00,North,5,2.0,4.0,91,0.00,,,0.00,meteohub,2013-09-11 07:17:00,
2013-09-11 03:22:00,74.7,72.1,30.00,North,5,2.0,4.0,92,0.00,,,0.00,meteohub,2013-09-11 07:22:00,
2013-09-11 03:27:00,74.7,72.1,30.00,North,0,2.0,5.0,92,0.00,,,0.00,meteohub,2013-09-11 07:27:00,
2013-09-11 03:32:00,74.5,72.0,30.00,North,0,0.0,5.0,92,0.00,,,0.00,meteohub,2013-09-11 07:32:00,
2013-09-11 03:37:00,74.3,71.8,30.00,North,0,1.0,5.0,92,0.00,,,0.00,meteohub,2013-09-11 07:37:00,
2013-09-11 03:42:00,74.3,72.1,30.00,North,0,2.0,4.0,93,0.00,,,0.00,meteohub,2013-09-11 07:42:00,
2013-09-11 03:47:00,74.1,72.0,29.99,North,9,3.0,4.0,93,0.00,,,0.00,meteohub,2013-09-11 07:47:00,
2013-09-11 03:52:00,74.3,72.1,29.99,North,0,1.0,5.0,93,0.00,,,0.00,meteohub,2013-09-11 07:52:00,
2013-09-11 03:57:00,74.1,72.0,29.99,North,0,2.0,6.0,93,0.00,,,0.00,meteohub,2013-09-11 07:57:00,
2013-09-11 04:02:00,74.1,72.0,29.99,North,5,1.0,6.0,93,0.00,,,0.00,meteohub,2013-09-11 08:02:00,
2013-09-11 04:07:00,74.1,72.0,29.99,North,5,5.0,6.0,93,0.00,,,0.00,meteohub,2013-09-11 08:07:00,
2013-09-11 04:12:00,74.1,72.0,29.99,North,5,1.0,6.0,93,0.00,,,0.00,meteohub,2013-09-11 08:12:00,
2013-09-11 04:17:00,74.1,72.0,29.99,North,5,0.0,5.0,93,0.00,,,0.00,meteohub,2013-09-11 08:17:00,
2013-09-11 04:22:00,73.9,72.1,29.99,North,5,3.0,5.0,94,0.00,,,0.00,meteohub,2013-09-11 08:22:00,
2013-09-11 04:27:00,74.1,72.3,29.99,North,5,0.0,5.0,94,0.00,,,0.00,meteohub,2013-09-11 08:27:00,
2013-09-11 04:32:00,74.1,72.3,29.99,North,5,2.0,5.0,94,0.00,,,0.00,meteohub,2013-09-11 08:32:00,
2013-09-11 04:37:00,74.1,72.3,29.99,North,9,3.0,5.0,94,0.00,,,0.00,meteohub,2013-09-11 08:37:00,
2013-09-11 04:42:00,73.9,72.1,29.99,NNE,17,2.0,5.0,94,0.00,,,0.00,meteohub,2013-09-11 08:42:00,
2013-09-11 04:47:00,73.9,72.1,29.99,NNE,28,2.0,5.0,94,0.00,,,0.00,meteohub,2013-09-11 08:47:00,
2013-09-11 04:52:00,73.9,72.1,29.99,NNE,15,1.0,5.0,94,0.00,,,0.00,meteohub,2013-09-11 08:52:00,
2013-09-11 04:57:00,73.9,72.1,29.99,NE,39,6.0,6.0,94,0.00,,,0.00,meteohub,2013-09-11 08:57:00,
2013-09-11 05:02:00,73.9,72.1,29.99,NE,34,4.0,7.0,94,0.00,,,0.00,meteohub,2013-09-11 09:02:00,
2013-09-11 05:07:00,73.8,72.0,29.99,NE,34,5.0,7.0,94,0.00,,,0.00,meteohub,2013-09-11 09:07:00,
2013-09-11 05:12:00,73.8,72.0,29.99,NNE,18,4.0,8.0,94,0.00,,,0.00,meteohub,2013-09-11 09:12:00,
2013-09-11 05:17:00,73.6,71.8,29.99,NE,45,2.0,8.0,94,0.00,,,0.00,meteohub,2013-09-11 09:17:00,
2013-09-11 05:22:00,73.6,72.1,29.99,NNE,26,3.0,8.0,95,0.00,,,0.00,meteohub,2013-09-11 09:22:00,
2013-09-11 05:27:00,73.6,72.1,29.99,NNE,32,5.0,8.0,95,0.00,,,0.00,meteohub,2013-09-11 09:27:00,
2013-09-11 05:32:00,73.6,72.1,29.99,NE,38,3.0,8.0,95,0.00,,,0.00,meteohub,2013-09-11 09:32:00,
2013-09-11 05:37:00,73.6,72.1,29.99,NNE,27,3.0,8.0,95,0.00,,,0.00,meteohub,2013-09-11 09:37:00,
2013-09-11 05:42:00,73.6,72.1,30.00,NNE,24,5.0,7.0,95,0.00,,,0.00,meteohub,2013-09-11 09:42:00,
2013-09-11 05:47:00,73.6,72.1,29.99,NE,36,4.0,7.0,95,0.00,,,0.00,meteohub,2013-09-11 09:47:00,
2013-09-11 05:52:00,73.6,72.1,30.00,North,5,3.0,7.0,95,0.00,,,0.00,meteohub,2013-09-11 09:52:00,
2013-09-11 05:57:00,73.6,72.1,30.00,NE,38,4.0,7.0,95,0.00,,,0.00,meteohub,2013-09-11 09:57:00,
2013-09-11 06:02:00,73.6,72.1,30.00,NE,35,4.0,7.0,95,0.00,,,0.00,meteohub,2013-09-11 10:02:00,
2013-09-11 06:07:00,73.8,72.3,30.00,NE,44,2.0,7.0,95,0.00,,,0.00,meteohub,2013-09-11 10:07:00,
2013-09-11 06:12:00,73.8,72.3,30.00,NE,49,2.0,8.0,95,0.00,,,0.00,meteohub,2013-09-11 10:12:00,
2013-09-11 06:17:00,73.9,72.5,30.01,NE,34,3.0,8.0,95,0.00,,,0.00,meteohub,2013-09-11 10:17:00,
2013-09-11 06:22:00,73.9,72.5,30.00,NE,45,3.0,9.0,95,0.00,,,0.00,meteohub,2013-09-11 10:22:00,
2013-09-11 06:27:00,74.1,72.7,30.01,NE,46,1.0,9.0,95,0.00,,,0.00,meteohub,2013-09-11 10:27:00,
2013-09-11 06:32:00,74.1,72.7,30.01,NE,53,2.0,9.0,95,0.00,,,0.00,meteohub,2013-09-11 10:32:00,
2013-09-11 06:37:00,74.1,72.7,30.01,ENE,67,4.0,8.0,95,0.00,,,0.00,meteohub,2013-09-11 10:37:00,
2013-09-11 06:42:00,74.3,72.9,30.01,East,90,2.0,8.0,95,0.00,,,0.00,meteohub,2013-09-11 10:42:00,
2013-09-11 06:47:00,74.3,72.9,30.01,NE,47,1.0,6.0,95,0.00,,,0.00,meteohub,2013-09-11 10:47:00,
2013-09-11 06:52:00,74.5,73.0,30.01,East,84,2.0,6.0,95,0.00,,,0.00,meteohub,2013-09-11 10:52:00,
2013-09-11 06:57:00,74.5,73.0,30.01,NE,40,2.0,6.0,95,0.00,,,0.00,meteohub,2013-09-11 10:57:00,
2013-09-11 07:02:00,74.5,73.0,30.01,NNE,33,1.0,6.0,95,0.00,,,0.00,meteohub,2013-09-11 11:02:00,
2013-09-11 07:07:00,74.7,73.2,30.01,NE,56,4.0,6.0,95,0.00,,,0.00,meteohub,2013-09-11 11:07:00,
2013-09-11 07:12:00,74.7,72.9,30.01,NE,45,3.0,7.0,94,0.00,,,0.00,meteohub,2013-09-11 11:12:00,
2013-09-11 07:17:00,74.7,72.9,30.01,NE,38,4.0,7.0,94,0.00,,,0.00,meteohub,2013-09-11 11:17:00,
2013-09-11 07:22:00,74.8,73.0,30.01,NE,43,2.0,9.0,94,0.00,,,0.00,meteohub,2013-09-11 11:22:00,
2013-09-11 07:27:00,74.8,73.0,30.02,NE,38,3.0,9.0,94,0.00,,,0.00,meteohub,2013-09-11 11:27:00,
2013-09-11 07:32:00,74.8,73.2,30.02,ENE,59,4.0,9.0,95,0.00,,,0.00,meteohub,2013-09-11 11:32:00,
2013-09-11 07:37:00,75.0,73.2,30.02,NE,38,3.0,7.0,94,0.00,,,0.00,meteohub,2013-09-11 11:37:00,
2013-09-11 07:42:00,75.0,73.2,30.02,NE,46,2.0,8.0,94,0.00,,,0.00,meteohub,2013-09-11 11:42:00,
2013-09-11 07:47:00,75.4,73.6,30.02,NNE,28,2.0,8.0,94,0.00,,,0.00,meteohub,2013-09-11 11:47:00,
2013-09-11 07:52:00,75.6,73.8,30.02,NNE,14,3.0,8.0,94,0.00,,,0.00,meteohub,2013-09-11 11:52:00,
2013-09-11 07:57:00,75.7,73.9,30.02,NNE,15,6.0,8.0,94,0.00,,,0.00,meteohub,2013-09-11 11:57:00,
2013-09-11 08:02:00,75.9,73.8,30.02,NNE,18,2.0,10.0,93,0.00,,,0.00,meteohub,2013-09-11 12:02:00,
2013-09-11 08:07:00,76.3,74.1,30.02,NE,55,6.0,10.0,93,0.00,,,0.00,meteohub,2013-09-11 12:07:00,
2013-09-11 08:12:00,76.5,73.9,30.03,NE,36,9.0,10.0,92,0.00,,,0.00,meteohub,2013-09-11 12:12:00,
2013-09-11 08:17:00,76.6,74.1,30.03,NE,35,5.0,10.0,92,0.00,,,0.00,meteohub,2013-09-11 12:17:00,
2013-09-11 08:22:00,76.8,74.3,30.03,NE,53,2.0,10.0,92,0.00,,,0.00,meteohub,2013-09-11 12:22:00,
2013-09-11 08:27:00,77.2,74.3,30.03,NNE,28,3.0,10.0,91,0.00,,,0.00,meteohub,2013-09-11 12:27:00,
2013-09-11 08:32:00,77.4,74.5,30.04,NNE,24,9.0,9.0,91,0.00,,,0.00,meteohub,2013-09-11 12:32:00,
2013-09-11 08:37:00,77.7,74.5,30.04,NE,40,8.0,11.0,90,0.00,,,0.00,meteohub,2013-09-11 12:37:00,
2013-09-11 08:42:00,78.1,74.8,30.04,NNE,26,5.0,11.0,90,0.00,,,0.00,meteohub,2013-09-11 12:42:00,
2013-09-11 08:47:00,78.3,74.7,30.04,NE,46,3.0,11.0,89,0.00,,,0.00,meteohub,2013-09-11 12:47:00,
2013-09-11 08:52:00,78.4,74.8,30.04,East,98,5.0,11.0,89,0.00,,,0.00,meteohub,2013-09-11 12:52:00,
2013-09-11 08:57:00,78.8,75.2,30.04,NNE,28,4.0,11.0,89,0.00,,,0.00,meteohub,2013-09-11 12:57:00,
2013-09-11 09:02:00,79.0,75.2,30.04,NE,34,5.0,12.0,88,0.00,,,0.00,meteohub,2013-09-11 13:02:00,
2013-09-11 09:07:00,79.3,75.6,30.04,ENE,64,9.0,12.0,88,0.00,,,0.00,meteohub,2013-09-11 13:07:00,
2013-09-11 09:12:00,79.7,75.6,30.04,ENE,66,7.0,12.0,87,0.00,,,0.00,meteohub,2013-09-11 13:12:00,
2013-09-11 09:17:00,80.1,75.6,30.04,NE,40,6.0,12.0,86,0.00,,,0.00,meteohub,2013-09-11 13:17:00,
2013-09-11 09:22:00,80.4,75.9,30.04,ENE,58,8.0,12.0,86,0.00,,,0.00,meteohub,2013-09-11 13:22:00,
2013-09-11 09:27:00,80.6,75.7,30.04,East,98,8.0,10.0,85,0.00,,,0.00,meteohub,2013-09-11 13:27:00,
2013-09-11 09:32:00,80.8,75.6,30.04,NE,35,11.0,12.0,84,0.00,,,0.00,meteohub,2013-09-11 13:32:00,
2013-09-11 09:37:00,81.1,75.9,30.04,ENE,57,5.0,12.0,84,0.00,,,0.00,meteohub,2013-09-11 13:37:00,
2013-09-11 09:42:00,81.5,76.3,30.04,East,95,3.0,11.0,84,0.00,,,0.00,meteohub,2013-09-11 13:42:00,
2013-09-11 09:47:00,81.9,76.1,30.04,ENE,65,7.0,11.0,83,0.00,,,0.00,meteohub,2013-09-11 13:47:00,
2013-09-11 09:52:00,82.0,75.9,30.04,ENE,63,3.0,11.0,82,0.00,,,0.00,meteohub,2013-09-11 13:52:00,
2013-09-11 09:57:00,82.2,75.7,30.04,NE,34,10.0,11.0,81,0.00,,,0.00,meteohub,2013-09-11 13:57:00,
2013-09-11 10:02:00,82.0,75.6,30.04,ENE,77,3.0,11.0,81,0.00,,,0.00,meteohub,2013-09-11 14:02:00,
2013-09-11 10:07:00,81.9,75.0,30.04,NE,40,6.0,13.0,80,0.00,,,0.00,meteohub,2013-09-11 14:07:00,
2013-09-11 10:12:00,82.2,75.4,30.04,ENE,57,5.0,13.0,80,0.00,,,0.00,meteohub,2013-09-11 14:12:00,
2013-09-11 10:17:00,82.8,75.2,30.04,ENE,63,11.0,14.0,78,0.00,,,0.00,meteohub,2013-09-11 14:17:00,
2013-09-11 10:22:00,83.1,75.2,30.04,NNE,28,9.0,15.0,77,0.00,,,0.00,meteohub,2013-09-11 14:22:00,
2013-09-11 10:32:00,83.5,74.7,30.04,NE,41,9.0,18.0,75,0.00,,,0.00,meteohub,2013-09-11 14:32:00,
2013-09-11 10:37:00,83.7,74.8,30.04,ENE,70,7.0,18.0,75,0.00,,,0.00,meteohub,2013-09-11 14:37:00,
2013-09-11 10:42:00,84.2,75.0,30.04,ENE,73,8.0,13.0,74,0.00,,,0.00,meteohub,2013-09-11 14:42:00,
2013-09-11 10:47:00,84.4,73.9,30.04,East,80,6.0,15.0,71,0.00,,,0.00,meteohub,2013-09-11 14:47:00,
2013-09-11 10:52:00,84.0,72.3,30.04,NE,39,9.0,15.0,68,0.00,,,0.00,meteohub,2013-09-11 14:52:00,
2013-09-11 11:02:00,84.6,72.9,30.04,NE,53,5.0,17.0,68,0.00,,,0.00,meteohub,2013-09-11 15:02:00,
2013-09-11 11:07:00,84.7,72.5,30.03,ENE,77,5.0,17.0,67,0.00,,,0.00,meteohub,2013-09-11 15:07:00,
2013-09-11 11:12:00,84.9,72.3,30.03,East,88,7.0,17.0,66,0.00,,,0.00,meteohub,2013-09-11 15:12:00,
2013-09-11 11:17:00,85.3,72.1,30.03,NE,42,8.0,19.0,65,0.00,,,0.00,meteohub,2013-09-11 15:17:00,
2013-09-11 11:22:00,85.5,70.9,30.03,ENE,61,14.0,19.0,62,0.00,,,0.00,meteohub,2013-09-11 15:22:00,
2013-09-11 11:27:00,85.6,71.1,30.03,East,96,5.0,16.0,62,0.00,,,0.00,meteohub,2013-09-11 15:27:00,
2013-09-11 11:32:00,85.6,71.6,30.03,East,83,9.0,17.0,63,0.00,,,0.00,meteohub,2013-09-11 15:32:00,
2013-09-11 11:37:00,86.0,72.3,30.03,NE,36,5.0,17.0,64,0.00,,,0.00,meteohub,2013-09-11 15:37:00,
2013-09-11 11:42:00,86.4,71.8,30.02,NNE,24,9.0,17.0,62,0.00,,,0.00,meteohub,2013-09-11 15:42:00,
2013-09-11 11:47:00,86.5,71.4,30.02,NE,34,9.0,17.0,61,0.00,,,0.00,meteohub,2013-09-11 15:47:00,
2013-09-11 11:52:00,86.9,71.4,30.02,NE,46,9.0,16.0,60,0.00,,,0.00,meteohub,2013-09-11 15:52:00,
2013-09-11 11:57:00,87.1,71.1,30.02,ENE,68,1.0,16.0,59,0.00,,,0.00,meteohub,2013-09-11 15:57:00,
2013-09-11 12:02:00,87.3,70.7,30.02,NE,47,6.0,16.0,58,0.00,,,0.00,meteohub,2013-09-11 16:02:00,
2013-09-11 12:07:00,87.1,71.1,30.02,ENE,76,8.0,16.0,59,0.00,,,0.00,meteohub,2013-09-11 16:07:00,
2013-09-11 12:12:00,87.3,71.6,30.02,East,85,6.0,16.0,60,0.00,,,0.00,meteohub,2013-09-11 16:12:00,
2013-09-11 12:17:00,87.4,72.3,30.02,ENE,60,7.0,16.0,61,0.00,,,0.00,meteohub,2013-09-11 16:17:00,
2013-09-11 12:22:00,87.8,72.7,30.02,NE,55,3.0,16.0,61,0.00,,,0.00,meteohub,2013-09-11 16:22:00,
2013-09-11 12:27:00,88.0,72.3,30.02,NE,49,2.0,15.0,60,0.00,,,0.00,meteohub,2013-09-11 16:27:00,
2013-09-11 12:32:00,88.3,72.1,30.02,East,80,2.0,14.0,59,0.00,,,0.00,meteohub,2013-09-11 16:32:00,
2013-09-11 12:37:00,88.3,71.2,30.02,ENE,62,5.0,15.0,57,0.00,,,0.00,meteohub,2013-09-11 16:37:00,
2013-09-11 12:42:00,88.2,71.6,30.02,East,94,5.0,15.0,58,0.00,,,0.00,meteohub,2013-09-11 16:42:00,
2013-09-11 12:47:00,88.0,70.3,30.02,ESE,115,4.0,15.0,56,0.00,,,0.00,meteohub,2013-09-11 16:47:00,
2013-09-11 12:52:00,88.0,71.8,30.02,ENE,69,10.0,16.0,59,0.00,,,0.00,meteohub,2013-09-11 16:52:00,
2013-09-11 12:57:00,88.0,71.8,30.02,East,82,7.0,16.0,59,0.00,,,0.00,meteohub,2013-09-11 16:57:00,
2013-09-11 13:02:00,88.3,72.1,30.02,East,93,8.0,16.0,59,0.00,,,0.00,meteohub,2013-09-11 17:02:00,
2013-09-11 13:07:00,88.5,72.3,30.01,ENE,63,13.0,16.0,59,0.00,,,0.00,meteohub,2013-09-11 17:07:00,
2013-09-11 13:12:00,87.8,71.6,30.01,NE,38,12.0,16.0,59,0.00,,,0.00,meteohub,2013-09-11 17:12:00,
2013-09-11 13:17:00,87.8,72.1,30.01,NNE,27,8.0,16.0,60,0.00,,,0.00,meteohub,2013-09-11 17:17:00,
2013-09-11 13:22:00,88.7,71.1,30.01,East,82,9.0,15.0,56,0.00,,,0.00,meteohub,2013-09-11 17:22:00,
2013-09-11 13:27:00,88.9,70.7,30.01,ESE,105,9.0,15.0,55,0.00,,,0.00,meteohub,2013-09-11 17:27:00,
2013-09-11 13:32:00,88.9,70.7,30.01,ENE,61,7.0,15.0,55,0.00,,,0.00,meteohub,2013-09-11 17:32:00,
2013-09-11 13:37:00,89.1,71.2,30.01,ESE,107,10.0,15.0,56,0.00,,,0.00,meteohub,2013-09-11 17:37:00,
2013-09-11 13:42:00,89.2,70.9,30.00,ENE,78,5.0,15.0,55,0.00,,,0.00,meteohub,2013-09-11 17:42:00,
2013-09-11 13:47:00,89.8,71.4,30.00,NNE,17,10.0,15.0,55,0.00,,,0.00,meteohub,2013-09-11 17:47:00,
2013-09-11 13:52:00,90.0,71.1,30.00,East,95,7.0,13.0,54,0.00,,,0.00,meteohub,2013-09-11 17:52:00,
2013-09-11 13:57:00,89.8,70.9,30.00,NE,41,7.0,13.0,54,0.00,,,0.00,meteohub,2013-09-11 17:57:00,
2013-09-11 14:02:00,89.8,69.8,30.00,ENE,65,9.0,15.0,52,0.00,,,0.00,meteohub,2013-09-11 18:02:00,
2013-09-11 14:07:00,89.6,69.1,29.99,East,98,9.0,15.0,51,0.00,,,0.00,meteohub,2013-09-11 18:07:00,
2013-09-11 14:12:00,89.8,69.8,29.99,SE,127,4.0,15.0,52,0.00,,,0.00,meteohub,2013-09-11 18:12:00,
2013-09-11 14:17:00,90.3,71.4,29.99,NE,53,6.0,15.0,54,0.00,,,0.00,meteohub,2013-09-11 18:17:00,
2013-09-11 14:22:00,90.3,69.1,29.99,SE,146,4.0,15.0,50,0.00,,,0.00,meteohub,2013-09-11 18:22:00,
2013-09-11 14:27:00,90.5,69.3,29.99,East,86,11.0,15.0,50,0.00,,,0.00,meteohub,2013-09-11 18:27:00,
2013-09-11 14:32:00,90.3,68.5,29.98,ENE,61,7.0,15.0,49,0.00,,,0.00,meteohub,2013-09-11 18:32:00,
2013-09-11 14:37:00,90.5,68.7,29.98,East,101,6.0,15.0,49,0.00,,,0.00,meteohub,2013-09-11 18:37:00,
2013-09-11 14:42:00,91.0,68.5,29.98,NE,42,4.0,15.0,48,0.00,,,0.00,meteohub,2013-09-11 18:42:00,
2013-09-11 14:47:00,91.2,68.7,29.98,East,98,2.0,15.0,48,0.00,,,0.00,meteohub,2013-09-11 18:47:00,
2013-09-11 14:52:00,90.9,67.8,29.97,NE,46,8.0,15.0,47,0.00,,,0.00,meteohub,2013-09-11 18:52:00,
2013-09-11 14:57:00,90.7,67.6,29.97,East,90,8.0,15.0,47,0.00,,,0.00,meteohub,2013-09-11 18:57:00,
2013-09-11 15:02:00,90.7,68.9,29.97,East,101,6.0,15.0,49,0.00,,,0.00,meteohub,2013-09-11 19:02:00,
2013-09-11 15:07:00,90.7,67.1,29.97,East,94,9.0,15.0,46,0.00,,,0.00,meteohub,2013-09-11 19:07:00,
2013-09-11 15:12:00,90.3,67.3,29.96,ENE,65,9.0,14.0,47,0.00,,,0.00,meteohub,2013-09-11 19:12:00,
2013-09-11 15:17:00,90.7,67.6,29.96,ESE,113,3.0,16.0,47,0.00,,,0.00,meteohub,2013-09-11 19:17:00,
2013-09-11 15:27:00,90.7,67.6,29.96,East,101,11.0,14.0,47,0.00,,,0.00,meteohub,2013-09-11 19:27:00,
2013-09-11 15:32:00,90.9,67.3,29.96,NE,36,11.0,14.0,46,0.00,,,0.00,meteohub,2013-09-11 19:32:00,
2013-09-11 15:37:00,91.2,68.2,29.96,NNE,20,14.0,14.0,47,0.00,,,0.00,meteohub,2013-09-11 19:37:00,
2013-09-11 15:42:00,91.2,67.5,29.96,NE,37,13.0,15.0,46,0.00,,,0.00,meteohub,2013-09-11 19:42:00,
2013-09-11 15:47:00,91.2,68.2,29.96,NNE,25,13.0,15.0,47,0.00,,,0.00,meteohub,2013-09-11 19:47:00,
2013-09-11 15:52:00,91.4,68.4,29.96,NE,51,4.0,15.0,47,0.00,,,0.00,meteohub,2013-09-11 19:52:00,
2013-09-11 15:57:00,91.2,67.5,29.96,NE,36,4.0,15.0,46,0.00,,,0.00,meteohub,2013-09-11 19:57:00,
2013-09-11 16:02:00,91.0,66.7,29.96,East,81,5.0,13.0,45,0.00,,,0.00,meteohub,2013-09-11 20:02:00,
2013-09-11 16:07:00,91.2,67.5,29.96,ENE,63,8.0,12.0,46,0.00,,,0.00,meteohub,2013-09-11 20:07:00,
2013-09-11 16:12:00,91.2,68.2,29.95,NNE,32,8.0,13.0,47,0.00,,,0.00,meteohub,2013-09-11 20:12:00,
2013-09-11 16:17:00,91.2,69.4,29.95,NE,47,4.0,13.0,49,0.00,,,0.00,meteohub,2013-09-11 20:17:00,
2013-09-11 16:22:00,91.2,67.5,29.95,East,82,5.0,13.0,46,0.00,,,0.00,meteohub,2013-09-11 20:22:00,
2013-09-11 16:27:00,91.0,68.5,29.95,East,92,5.0,13.0,48,0.00,,,0.00,meteohub,2013-09-11 20:27:00,
2013-09-11 16:32:00,90.7,67.6,29.95,East,84,1.0,13.0,47,0.00,,,0.00,meteohub,2013-09-11 20:32:00,
2013-09-11 16:37:00,91.0,68.5,29.95,ENE,66,2.0,13.0,48,0.00,,,0.00,meteohub,2013-09-11 20:37:00,
2013-09-11 16:42:00,91.6,69.1,29.95,ENE,68,4.0,12.0,48,0.00,,,0.00,meteohub,2013-09-11 20:42:00,
2013-09-11 16:47:00,91.8,68.7,29.95,NE,46,6.0,9.0,47,0.00,,,0.00,meteohub,2013-09-11 20:47:00,
2013-09-11 16:52:00,91.4,68.4,29.95,ENE,72,4.0,11.0,47,0.00,,,0.00,meteohub,2013-09-11 20:52:00,
2013-09-11 16:57:00,91.2,68.7,29.95,NE,44,5.0,11.0,48,0.00,,,0.00,meteohub,2013-09-11 20:57:00,
2013-09-11 17:02:00,91.2,68.7,29.95,NE,40,5.0,11.0,48,0.00,,,0.00,meteohub,2013-09-11 21:02:00,
2013-09-11 17:07:00,91.2,69.4,29.95,ENE,76,5.0,10.0,49,0.00,,,0.00,meteohub,2013-09-11 21:07:00,
2013-09-11 17:12:00,91.2,68.7,29.95,NE,55,5.0,11.0,48,0.00,,,0.00,meteohub,2013-09-11 21:12:00,
2013-09-11 17:17:00,90.9,68.5,29.95,ESE,102,7.0,11.0,48,0.00,,,0.00,meteohub,2013-09-11 21:17:00,
2013-09-11 17:22:00,91.0,69.8,29.95,NE,51,4.0,11.0,50,0.00,,,0.00,meteohub,2013-09-11 21:22:00,
2013-09-11 17:27:00,91.0,69.3,29.95,NE,46,4.0,12.0,49,0.00,,,0.00,meteohub,2013-09-11 21:27:00,
2013-09-11 17:32:00,91.0,69.3,29.95,NE,40,3.0,12.0,49,0.00,,,0.00,meteohub,2013-09-11 21:32:00,
2013-09-11 17:37:00,91.0,69.3,29.95,NE,43,7.0,12.0,49,0.00,,,0.00,meteohub,2013-09-11 21:37:00,
2013-09-11 17:42:00,91.0,68.5,29.95,ENE,63,2.0,13.0,48,0.00,,,0.00,meteohub,2013-09-11 21:42:00,
2013-09-11 17:47:00,91.2,69.4,29.94,NNE,28,3.0,13.0,49,0.00,,,0.00,meteohub,2013-09-11 21:47:00,
2013-09-11 17:52:00,91.2,68.7,29.95,ENE,67,3.0,11.0,48,0.00,,,0.00,meteohub,2013-09-11 21:52:00,
2013-09-11 17:57:00,91.0,69.3,29.95,ENE,64,4.0,9.0,49,0.00,,,0.00,meteohub,2013-09-11 21:57:00,
2013-09-11 18:02:00,91.0,69.3,29.95,ENE,76,2.0,9.0,49,0.00,,,0.00,meteohub,2013-09-11 22:02:00,
2013-09-11 18:07:00,90.9,69.6,29.95,NE,34,8.0,9.0,50,0.00,,,0.00,meteohub,2013-09-11 22:07:00,
2013-09-11 18:12:00,90.7,69.4,29.95,East,80,6.0,12.0,50,0.00,,,0.00,meteohub,2013-09-11 22:12:00,
2013-09-11 18:17:00,90.7,69.4,29.95,East,87,1.0,12.0,50,0.00,,,0.00,meteohub,2013-09-11 22:17:00,
2013-09-11 18:22:00,90.7,70.7,29.95,NNE,28,2.0,10.0,52,0.00,,,0.00,meteohub,2013-09-11 22:22:00,
2013-09-11 18:27:00,90.7,70.7,29.95,ENE,75,9.0,9.0,52,0.00,,,0.00,meteohub,2013-09-11 22:27:00,
2013-09-11 18:32:00,90.3,70.3,29.95,NE,51,4.0,10.0,52,0.00,,,0.00,meteohub,2013-09-11 22:32:00,
2013-09-11 18:37:00,90.1,70.2,29.95,ENE,77,5.0,10.0,52,0.00,,,0.00,meteohub,2013-09-11 22:37:00,
2013-09-11 18:42:00,90.0,70.0,29.95,ENE,67,2.0,10.0,52,0.00,,,0.00,meteohub,2013-09-11 22:42:00,
2013-09-11 18:47:00,89.8,69.8,29.95,NE,44,4.0,8.0,52,0.00,,,0.00,meteohub,2013-09-11 22:47:00,
2013-09-11 18:52:00,89.6,69.6,29.95,East,82,3.0,9.0,52,0.00,,,0.00,meteohub,2013-09-11 22:52:00,
2013-09-11 18:57:00,89.2,69.8,29.95,ENE,73,2.0,9.0,53,0.00,,,0.00,meteohub,2013-09-11 22:57:00,
2013-09-11 19:02:00,89.1,69.6,29.95,East,96,2.0,9.0,53,0.00,,,0.00,meteohub,2013-09-11 23:02:00,
2013-09-11 19:07:00,88.9,70.2,29.95,NE,49,5.0,8.0,54,0.00,,,0.00,meteohub,2013-09-11 23:07:00,
2013-09-11 19:12:00,88.7,70.0,29.95,ENE,76,1.0,8.0,54,0.00,,,0.00,meteohub,2013-09-11 23:12:00,
2013-09-11 19:17:00,88.3,70.2,29.95,East,97,5.0,8.0,55,0.00,,,0.00,meteohub,2013-09-11 23:17:00,
2013-09-11 19:22:00,87.3,71.2,29.95,ESE,117,8.0,11.0,59,0.00,,,0.00,meteohub,2013-09-11 23:22:00,
2013-09-11 19:27:00,86.2,71.1,29.96,East,96,0.0,13.0,61,0.00,,,0.00,meteohub,2013-09-11 23:27:00,
2013-09-11 19:32:00,85.6,71.1,29.95,SSE,156,5.0,14.0,62,0.00,,,0.00,meteohub,2013-09-11 23:32:00,
2013-09-11 19:37:00,85.1,71.1,29.96,SE,132,0.0,14.0,63,0.00,,,0.00,meteohub,2013-09-11 23:37:00,
2013-09-11 19:42:00,84.7,71.2,29.95,ESE,111,2.0,14.0,64,0.00,,,0.00,meteohub,2013-09-11 23:42:00,
2013-09-11 19:47:00,84.6,71.4,29.96,ESE,109,1.0,9.0,65,0.00,,,0.00,meteohub,2013-09-11 23:47:00,
2013-09-11 19:52:00,84.2,71.6,29.96,ESE,112,2.0,7.0,66,0.00,,,0.00,meteohub,2013-09-11 23:52:00,
2013-09-11 19:57:00,83.8,71.8,29.96,ESE,102,3.0,7.0,67,0.00,,,0.00,meteohub,2013-09-11 23:57:00,
2013-09-11 20:02:00,83.8,72.1,29.96,NE,47,4.0,7.0,68,0.00,,,0.00,meteohub,2013-09-12 00:02:00,
2013-09-11 20:07:00,83.7,72.0,29.96,NE,52,3.0,6.0,68,0.00,,,0.00,meteohub,2013-09-12 00:07:00,
2013-09-11 20:12:00,83.5,70.5,29.96,NE,54,2.0,6.0,65,0.00,,,0.00,meteohub,2013-09-12 00:12:00,
2013-09-11 20:17:00,83.7,70.2,29.96,East,81,2.0,6.0,64,0.00,,,0.00,meteohub,2013-09-12 00:17:00,
2013-09-11 20:22:00,83.7,70.7,29.96,NE,53,3.0,6.0,65,0.00,,,0.00,meteohub,2013-09-12 00:22:00,
2013-09-11 20:27:00,83.5,70.5,29.96,NE,53,0.0,6.0,65,0.00,,,0.00,meteohub,2013-09-12 00:27:00,
2013-09-11 20:32:00,83.5,70.9,29.96,NE,53,0.0,4.0,66,0.00,,,0.00,meteohub,2013-09-12 00:32:00,
2013-09-11 20:37:00,83.3,71.2,29.97,NE,53,1.0,4.0,67,0.00,,,0.00,meteohub,2013-09-12 00:37:00,
2013-09-11 20:42:00,83.1,71.1,29.97,NE,56,0.0,3.0,67,0.00,,,0.00,meteohub,2013-09-12 00:42:00,
2013-09-11 20:47:00,82.9,70.9,29.98,East,80,5.0,5.0,67,0.00,,,0.00,meteohub,2013-09-12 00:47:00,
2013-09-11 20:52:00,82.9,71.2,29.97,ENE,74,2.0,5.0,68,0.00,,,0.00,meteohub,2013-09-12 00:52:00,
2013-09-11 20:57:00,82.8,71.1,29.98,ENE,71,0.0,5.0,68,0.00,,,0.00,meteohub,2013-09-12 00:57:00,
2013-09-11 21:02:00,82.8,71.1,29.98,NE,45,1.0,6.0,68,0.00,,,0.00,meteohub,2013-09-12 01:02:00,
2013-09-11 21:07:00,82.8,70.7,29.98,NE,53,0.0,6.0,67,0.00,,,0.00,meteohub,2013-09-12 01:07:00,
2013-09-11 21:12:00,82.8,70.7,29.98,ENE,63,1.0,6.0,67,0.00,,,0.00,meteohub,2013-09-12 01:12:00,
2013-09-11 21:17:00,82.8,71.1,29.98,East,90,3.0,5.0,68,0.00,,,0.00,meteohub,2013-09-12 01:17:00,
2013-09-11 21:22:00,82.8,71.1,29.98,ESE,105,7.0,8.0,68,0.00,,,0.00,meteohub,2013-09-12 01:22:00,
2013-09-11 21:27:00,82.8,71.6,29.98,East,87,1.0,8.0,69,0.00,,,0.00,meteohub,2013-09-12 01:27:00,
2013-09-11 21:37:00,82.6,71.8,29.98,East,94,2.0,7.0,70,0.00,,,0.00,meteohub,2013-09-12 01:37:00,
2013-09-11 21:42:00,82.6,71.8,29.98,East,101,5.0,7.0,70,0.00,,,0.00,meteohub,2013-09-12 01:42:00,
2013-09-11 21:47:00,82.2,71.4,29.97,East,94,2.0,7.0,70,0.00,,,0.00,meteohub,2013-09-12 01:47:00,
2013-09-11 21:52:00,82.2,72.0,29.98,East,93,2.0,7.0,71,0.00,,,0.00,meteohub,2013-09-12 01:52:00,
2013-09-11 21:57:00,82.0,72.1,29.98,East,92,5.0,7.0,72,0.00,,,0.00,meteohub,2013-09-12 01:57:00,
2013-09-11 22:02:00,82.0,72.1,29.98,ESE,112,2.0,7.0,72,0.00,,,0.00,meteohub,2013-09-12 02:02:00,
2013-09-11 22:07:00,82.0,72.1,29.98,East,95,3.0,7.0,72,0.00,,,0.00,meteohub,2013-09-12 02:07:00,
2013-09-11 22:12:00,81.9,72.3,29.98,East,86,3.0,6.0,73,0.00,,,0.00,meteohub,2013-09-12 02:12:00,
2013-09-11 22:17:00,81.9,72.3,29.98,East,80,0.0,6.0,73,0.00,,,0.00,meteohub,2013-09-12 02:17:00,
2013-09-11 22:22:00,81.7,72.5,29.99,ESE,104,0.0,6.0,74,0.00,,,0.00,meteohub,2013-09-12 02:22:00,
2013-09-11 22:27:00,81.7,72.5,29.99,East,96,3.0,6.0,74,0.00,,,0.00,meteohub,2013-09-12 02:27:00,
2013-09-11 22:32:00,81.5,72.9,29.99,SE,133,4.0,6.0,75,0.00,,,0.00,meteohub,2013-09-12 02:32:00,
2013-09-11 22:37:00,81.7,73.4,29.99,SE,142,4.0,9.0,76,0.00,,,0.00,meteohub,2013-09-12 02:37:00,
2013-09-11 22:42:00,81.5,73.2,30.00,SSE,156,2.0,9.0,76,0.00,,,0.00,meteohub,2013-09-12 02:42:00,
2013-09-11 22:47:00,81.3,73.4,30.00,South,169,3.0,9.0,77,0.00,,,0.00,meteohub,2013-09-12 02:47:00,
2013-09-11 22:52:00,81.3,73.4,30.00,SE,144,1.0,7.0,77,0.00,,,0.00,meteohub,2013-09-12 02:52:00,
2013-09-11 22:57:00,81.1,73.6,30.00,SSE,149,0.0,10.0,78,0.00,,,0.00,meteohub,2013-09-12 02:57:00,
2013-09-11 23:02:00,81.0,73.4,30.00,ESE,121,1.0,10.0,78,0.00,,,0.00,meteohub,2013-09-12 03:02:00,
2013-09-11 23:07:00,80.8,73.2,29.99,SSE,147,4.0,8.0,78,0.00,,,0.00,meteohub,2013-09-12 03:07:00,
2013-09-11 23:12:00,80.8,73.2,30.00,SE,127,6.0,7.0,78,0.00,,,0.00,meteohub,2013-09-12 03:12:00,
2013-09-11 23:17:00,80.6,73.4,29.99,SSE,152,3.0,8.0,79,0.00,,,0.00,meteohub,2013-09-12 03:17:00,
2013-09-11 23:22:00,80.4,73.2,29.99,SE,146,3.0,8.0,79,0.00,,,0.00,meteohub,2013-09-12 03:22:00,
2013-09-11 23:27:00,80.4,73.2,29.99,SE,129,2.0,8.0,79,0.00,,,0.00,meteohub,2013-09-12 03:27:00,
2013-09-11 23:32:00,80.2,73.0,29.99,SE,131,0.0,7.0,79,0.00,,,0.00,meteohub,2013-09-12 03:32:00,
2013-09-11 23:37:00,80.2,73.6,30.00,SE,143,1.0,7.0,80,0.00,,,0.00,meteohub,2013-09-12 03:37:00,
2013-09-11 23:42:00,80.1,73.4,30.00,SE,134,2.0,5.0,80,0.00,,,0.00,meteohub,2013-09-12 03:42:00,
2013-09-11 23:47:00,80.1,73.8,29.99,North,0,2.0,6.0,81,0.00,,,0.00,meteohub,2013-09-12 03:47:00,
2013-09-11 23:52:00,80.1,73.8,30.00,ESE,107,2.0,6.0,81,0.00,,,0.00,meteohub,2013-09-12 03:52:00,
2013-09-11 23:57:00,79.9,73.6,29.99,ESE,121,4.0,5.0,81,0.00,,,0.00,meteohub,2013-09-12 03:57:00,